Home   Weather   Bonn   Past weeks

Flag for Germany Past Weather in Bonn, North Rhine-Westphalia, Germany — Yesterday and Last 2 Weeks

Now
44 °F

Overcast.


Feels Like: 39 °F
Forecast: 46 / 51 °F
Wind: 10 mph from Southwest

Location: Aachen-Orsbach

Current Time: Feb 26, 2017 at 4:37:06 am

Latest Report: Feb 26, 2017 at 3:00 am


Visibility: 28 mi

Pressure: 29.94 "Hg

Humidity: 66%

Dew Point: 33 °F

Location of BonnLocation

Past Weather in Bonn — Graph

°F

Bonn Temperature Yesterday

Maximum temperature yesterday: 45 °F (at 2:00 pm)
Minimum temperature yesterday: 35 °F (at 5:00 am)
Average temperature yesterday: 40 °F

High & Low Weather Summary for the Past Weeks

 TemperatureHumidityPressure
High61 °F (Feb 15, 3:00 pm)100% (Feb 11, 5:00 am)30.51 "Hg (Feb 11, 5:00 am)
Low30 °F (Feb 11, 8:00 am)49% (Feb 15, 2:00 pm)29.29 "Hg (Feb 23, 5:00 pm)
Average42 °F84%30.15 "Hg
* Reported Feb 11 3:00 am — Feb 26 3:00 am, Bonn, Weather by CustomWeather, © 2017

Note: Actual official high and low records may vary slightly from our data, if they occured in-between our weather recording intervals... More about our weather records

Advertising

Bonn Weather History for the Previous 24 Hours

Scroll right to see more
 ConditionsComfort  
Time TempWeatherWind HumidityBarometerVisibility
3:00 am
Sun, Feb 26
44 °FOvercast.10 mph66%29.94 "Hg28 mi
2:00 am44 °FOvercast.10 mph66%29.96 "Hg25 mi
12:00 am43 °FOvercast.10 mph68%29.98 "Hg18 mi
11:00 pm
Sat, Feb 25
42 °FOvercast.10 mph71%30.00 "Hg17 mi
9:00 pm42 °FOvercast.10 mph69%30.02 "Hg19 mi
8:00 pm42 °FOvercast.9 mph68%30.02 "Hg22 mi
6:00 pm44 °FOvercast.9 mph61%30.02 "Hg34 mi
5:00 pm44 °FOvercast.10 mph59%30.06 "Hg37 mi
3:00 pm44 °FOvercast.8 mph61%30.07 "Hg28 mi
2:00 pm45 °FOvercast.12 mph62%30.09 "Hg28 mi
12:00 pm43 °FOvercast.9 mph69%30.14 "Hg28 mi
11:00 am42 °FPassing clouds.2 mph75%30.16 "Hg3 mi
9:00 am36 °FPassing clouds.6 mph81%30.17 "Hg16 mi
8:00 am35 °FPassing clouds.7 mph86%30.17 "Hg9 mi
6:00 am35 °FFog.6 mph92%30.15 "Hg4 mi
5:00 am35 °FFog.6 mph96%30.16 "Hg2 mi
Weather by CustomWeather, © 2017

See weather overviewHow to use our weather pages